[[{"header":{"parameterUnit":"m.s-1","parameterCategory":1,"la1":30.2991,"la2":30.254,"lo1":-89.0895,"lo2":-89.0444,"dy":0.0017,"dx":0.0017,"nx":28,"ny":28,"refTime":"2024-11-29T03:00:00:Z","depth":0,"parameterNumber":2,"parameterNumberName":"U-component_of_WINDS"},"data":[0,0,0,0,0,0,0,0,0,0,0,0,0,0,0,0,0,0,0,0,0,0,0,0,0,0,0,0,0,0,0,0,0,0,0,0,0,0,0,0,0,0,0,0,0,0,0,0,0,0,0,0,0,0,0,0,0,0,-0.6883,-0.6883,0,-0.691,-0.691,-0.6911,-0.689,-0.6889,-0.6888,-0.6887,-0.6916,-0.6918,-0.6919,0,0,0,0,0,0,0,0,0,0,0,0,0,-0.6813,-0.6815,-0.6883,-0.6883,-0.6883,-0.691,-0.691,-0.6911,-0.689,-0.6889,-0.6888,-0.6887,-0.6916,-0.6918,-0.692,0,0,0,0,0,0,0,0,0,0,0,0,0,-0.6842,-0.6815,-0.6883,-0.6876,-0.6876,-0.691,-0.691,-0.6911,-0.689,-0.6889,-0.6887,-0.6886,-0.6915,-0.6918,-0.692,-0.6962,0,0,-0.6927,-0.6928,0,0,0,0,0,0,0,0,-0.6841,-0.6845,-0.6877,-0.6877,-0.6876,-0.6895,-0.6896,-0.6928,-0.689,-0.6885,-0.6887,-0.6885,-0.691,-0.6913,-0.6921,-0.6964,-0.6965,-0.6928,-0.6929,-0.693,-0.6931,0,0,0,0,0,0,0,-0.6839,-0.6844,-0.6893,-0.6877,-0.6877,-0.6872,-0.6875,-0.6902,-0.6905,-0.6885,-0.6884,-0.6887,-0.691,-0.6919,-0.6922,-0.6965,-0.6928,-0.693,-0.6931,-0.6932,-0.7043,-0.7044,0,0,0,0,0,0,-0.6837,-0.6842,-0.6893,-0.6894,-0.6855,-0.6874,-0.6877,-0.689,-0.6905,-0.6905,-0.6888,-0.6886,-0.6915,-0.6919,-0.6923,-0.6973,-0.693,-0.6932,-0.6934,-0.7041,-0.7043,-0.7045,0,0,0,0,0,0,-0.6836,-0.6842,-0.6891,-0.6868,-0.6874,-0.6877,-0.6892,-0.6892,-0.6901,-0.6907,-0.6907,-0.6897,-0.6915,-0.6919,-0.6952,-0.6974,-0.6933,-0.6936,-0.704,-0.7042,-0.7044,-0.7074,0,0,0,0,0,0,-0.6834,-0.6841,-0.6857,-0.6868,-0.6875,-0.6921,-0.6893,-0.6893,-0.6905,-0.6902,-0.6915,-0.6916,-0.6914,-0.6949,-0.6955,-0.6977,-0.6938,-0.7038,-0.7041,-0.7043,-0.7071,-0.7077,-0.7082,0,0,0,0,0,-0.6831,-0.6865,-0.6858,-0.6865,-0.6895,-0.6922,-0.6926,-0.6922,-0.6906,-0.6923,-0.6927,-0.6916,-0.697,-0.6952,-0.6959,-0.6982,-0.7037,-0.704,-0.7043,-0.7069,-0.7076,-0.7082,0,0,0,0,0,0,-0.6858,-0.6867,-0.6859,-0.6897,-0.6909,-0.6918,-0.6939,-0.693,-0.6947,-0.6944,-0.6939,-0.6942,-0.6977,-0.6982,-0.6962,-0.7023,-0.7001,-0.7006,-0.7018,-0.7025,-0.7031,-0.7029,-0.694,0,0,0,0,0,-0.6868,-0.6889,-0.6895,-0.6928,-0.6934,-0.6936,-0.6947,-0.6943,-0.6955,-0.696,-0.6967,-0.6979,-0.6999,-0.7012,-0.7031,-0.7072,-0.7074,-0.7091,-0.7096,-0.71,-0.7105,-0.7127,-0.7134,-0.7056,-0.7056,-0.7056,0,0,-0.6889,-0.6897,-0.691,-0.6934,-0.6942,-0.6964,-0.694,-0.6964,-0.698,-0.6964,-0.6996,-0.7,-0.7014,-0.7051,-0.7068,-0.7057,-0.7127,-0.7105,-0.7108,-0.711,-0.7131,-0.7139,-0.7145,-0.7058,-0.7058,-0.7057,0,0,-0.694,-0.6947,-0.6976,-0.6984,-0.6997,-0.6998,-0.7004,-0.7015,-0.7017,-0.7049,-0.7037,-0.7056,-0.709,-0.71,-0.711,-0.7163,-0.7153,-0.7169,-0.7198,-0.7219,-0.7225,-0.7231,-0.725,-0.7257,-0.7173,-0.7173,-0.7173,0,-0.6965,-0.6997,-0.6992,-0.7016,-0.7027,-0.7012,-0.7041,-0.705,-0.7069,-0.7077,-0.7064,-0.7106,-0.7114,-0.7153,-0.7166,-0.7174,-0.7182,-0.7168,-0.7225,-0.723,-0.7235,-0.7253,-0.7261,-0.7175,-0.7175,-0.7174,-0.7174,0,-0.7028,-0.705,-0.7072,-0.7089,-0.7102,-0.7129,-0.7128,-0.7141,-0.7136,-0.7138,-0.717,-0.7178,-0.7198,-0.7207,-0.7202,-0.7246,-0.7238,-0.7225,-0.7203,-0.7245,-0.7262,-0.7269,-0.7178,-0.7177,-0.7176,-0.7176,0,0,-0.7097,-0.711,-0.7118,-0.7126,-0.7138,-0.7156,-0.7182,-0.7201,-0.7213,-0.7226,-0.7247,-0.7276,-0.7264,-0.7275,-0.7271,-0.7289,-0.7331,-0.7274,-0.7274,-0.7285,-0.7379,-0.739,-0.7398,-0.7324,-0.7325,-0.7326,-0.7378,0,-0.7149,-0.7194,-0.7189,-0.7232,-0.7252,-0.7238,-0.726,-0.727,-0.7272,-0.729,-0.7292,-0.7313,-0.7295,-0.7301,-0.7319,-0.7322,-0.735,-0.7318,-0.7345,-0.7346,-0.7343,-0.7407,-0.7418,-0.7466,-0.7385,-0.7386,-0.7387,0,-0.7215,-0.723,-0.7275,-0.7283,-0.7292,-0.7312,-0.7329,-0.7346,-0.7357,-0.7357,-0.7368,-0.7361,-0.7387,-0.7363,-0.7399,-0.7377,-0.7388,-0.7391,-0.7393,-0.7396,-0.737,-0.7412,-0.7482,-0.7489,-0.7397,-0.7396,-0.7396,0,-0.7262,-0.7293,-0.7323,-0.733,-0.7341,-0.7356,-0.7361,-0.737,-0.7382,-0.7396,-0.7404,-0.7421,-0.7431,-0.7445,-0.7442,-0.7425,-0.7479,-0.7455,-0.748,-0.748,-0.7493,-0.7492,-0.7566,-0.7498,-0.7498,-0.7498,-0.7498,0,-0.7321,-0.7349,-0.7344,-0.7364,-0.7394,-0.7388,-0.7419,-0.7422,-0.7431,-0.745,-0.7439,-0.7457,-0.7452,-0.747,-0.7468,-0.7498,-0.7503,-0.7504,-0.7503,-0.7505,-0.7505,-0.7513,-0.751,-0.75,-0.75,-0.7499,-0.7499,0,-0.7379,-0.7377,-0.7409,-0.7416,-0.7419,-0.7441,-0.7448,-0.7466,-0.7466,-0.7491,-0.7496,-0.7497,-0.7518,-0.7516,-0.754,-0.7538,-0.7575,-0.757,-0.7572,-0.7571,-0.7596,-0.7594,-0.7678,-0.7689,-0.7613,-0.7614,-0.7615,0,-0.7417,-0.7438,-0.7447,-0.7459,-0.7465,-0.7484,-0.7496,-0.749,-0.7502,-0.7516,-0.7532,-0.7552,-0.7567,-0.7601,-0.7604,-0.7622,-0.7618,-0.7646,-0.762,-0.7622,-0.7619,-0.7618,-0.762,-0.7651,-0.7652,-0.7653,-0.7653,0,-0.7485,-0.7482,-0.7499,-0.7515,-0.7529,-0.7542,-0.7553,-0.7564,-0.7559,-0.7574,-0.7594,-0.7606,-0.763,-0.765,-0.7666,-0.7672,-0.7662,-0.7661,-0.7668,-0.7671,-0.7671,-0.7672,-0.7586,-0.7659,-0.7659,-0.7658,-0.7658,-0.7658,-0.7534,-0.7552,-0.7561,-0.758,-0.7588,-0.7599,-0.7616,-0.7618,-0.7635,-0.7653,-0.7649,-0.7672,-0.7682,-0.7703,-0.771,-0.7729,-0.7718,-0.7728,-0.7731,-0.7734,-0.7737,-0.7667,-0.7731,-0.7731,-0.7731,-0.7731,-0.7731,0,-0.7602,-0.7607,-0.7624,-0.764,-0.7655,-0.7643,-0.7655,-0.7668,-0.7689,-0.7698,-0.7714,-0.7737,-0.7756,-0.776,-0.7778,-0.7792,-0.7787,-0.7796,-0.7796,-0.7797,-0.7745,-0.7737,-0.7799,-0.7799,-0.7799,-0.7799,-0.7799,-0.7799,-0.7639,-0.7669,-0.7667,-0.7701,-0.7705,-0.7728,-0.7736,-0.7746,-0.7753,-0.778,-0.7795,-0.7797,-0.7804,-0.7822,-0.7839,-0.784,-0.7847,-0.7858,-0.7857,-0.7808,-0.7801,-0.7795,-0.7788,-0.7859,-0.786,-0.7908,-0.7909,-0.7909]},{"header":{"parameterUnit":"m.s-1","parameterCategory":1,"la1":30.2991,"la2":30.254,"lo1":-89.0895,"lo2":-89.0444,"dy":0.0017,"dx":0.0017,"nx":28,"ny":28,"refTime":"2024-11-29T03:00:00:Z","depth":0,"parameterNumber":3,"parameterNumberName":"V-component_of_WINDS"},"data":[0,0,0,0,0,0,0,0,0,0,0,0,0,0,0,0,0,0,0,0,0,0,0,0,0,0,0,0,0,0,0,0,0,0,0,0,0,0,0,0,0,0,0,0,0,0,0,0,0,0,0,0,0,0,0,0,0,0,-7.6103,-7.6104,0,-7.6206,-7.6207,-7.6208,-7.6137,-7.6134,-7.613,-7.6127,-7.6226,-7.6232,-7.6237,0,0,0,0,0,0,0,0,0,0,0,0,0,-7.5839,-7.5844,-7.6103,-7.6104,-7.6106,-7.6206,-7.6207,-7.6209,-7.6137,-7.6133,-7.613,-7.6126,-7.6225,-7.6231,-7.6238,0,0,0,0,0,0,0,0,0,0,0,0,0,-7.5949,-7.5846,-7.6103,-7.6082,-7.6082,-7.6206,-7.6207,-7.6209,-7.6138,-7.6133,-7.6129,-7.6124,-7.6222,-7.6231,-7.6239,-7.6387,0,0,-7.6265,-7.6268,0,0,0,0,0,0,0,0,-7.5943,-7.5959,-7.6084,-7.6084,-7.6083,-7.6154,-7.615,-7.6268,-7.6139,-7.6117,-7.6127,-7.6122,-7.6206,-7.6215,-7.6245,-7.6391,-7.6396,-7.6265,-7.627,-7.6274,-7.6276,0,0,0,0,0,0,0,-7.5935,-7.5954,-7.6144,-7.6086,-7.6086,-7.6066,-7.6076,-7.6172,-7.6186,-7.6118,-7.6113,-7.6127,-7.6204,-7.6237,-7.6247,-7.6397,-7.6265,-7.6273,-7.6278,-7.6281,-7.667,-7.6675,0,0,0,0,0,0,-7.593,-7.5948,-7.614,-7.6147,-7.6,-7.6075,-7.6086,-7.6136,-7.6185,-7.6188,-7.6131,-7.6123,-7.6225,-7.6237,-7.625,-7.6426,-7.6274,-7.6282,-7.6287,-7.6664,-7.6671,-7.6676,0,0,0,0,0,0,-7.5925,-7.5948,-7.6136,-7.6046,-7.6069,-7.6084,-7.6141,-7.614,-7.6173,-7.6195,-7.6196,-7.6162,-7.6222,-7.6238,-7.6354,-7.6429,-7.6286,-7.6293,-7.6658,-7.6666,-7.6674,-7.678,0,0,0,0,0,0,-7.5918,-7.5947,-7.6004,-7.6048,-7.6074,-7.6241,-7.6145,-7.6146,-7.6188,-7.6179,-7.6224,-7.6227,-7.6219,-7.6341,-7.6362,-7.6438,-7.63,-7.6651,-7.6662,-7.6671,-7.677,-7.6791,-7.6809,0,0,0,0,0,-7.5908,-7.6029,-7.6008,-7.6031,-7.6147,-7.6245,-7.6259,-7.625,-7.6195,-7.6252,-7.6266,-7.6226,-7.6417,-7.6354,-7.6376,-7.6456,-7.6647,-7.6659,-7.667,-7.6762,-7.6787,-7.6808,0,0,0,0,0,0,-7.5991,-7.6034,-7.6011,-7.615,-7.6195,-7.6233,-7.6305,-7.6277,-7.6336,-7.6325,-7.6308,-7.6319,-7.644,-7.6459,-7.6388,-7.6601,-7.6523,-7.654,-7.6585,-7.6609,-7.6628,-7.662,-7.6307,0,0,0,0,0,-7.6026,-7.6105,-7.6137,-7.6256,-7.628,-7.6289,-7.6331,-7.632,-7.6365,-7.6383,-7.6405,-7.6448,-7.6518,-7.6564,-7.663,-7.6773,-7.6781,-7.6838,-7.6857,-7.6873,-7.6888,-7.6964,-7.699,-7.6715,-7.6715,-7.6715,0,0,-7.6098,-7.6131,-7.6181,-7.6274,-7.6307,-7.6387,-7.6305,-7.6393,-7.6451,-7.6395,-7.6507,-7.6525,-7.6571,-7.6702,-7.676,-7.6721,-7.6965,-7.6888,-7.6901,-7.6907,-7.6979,-7.7005,-7.7028,-7.6723,-7.6722,-7.6721,0,0,-7.627,-7.6304,-7.6407,-7.6443,-7.6495,-7.65,-7.6525,-7.6568,-7.6579,-7.6691,-7.665,-7.6718,-7.6839,-7.6874,-7.6908,-7.7094,-7.7059,-7.7116,-7.7216,-7.7291,-7.7313,-7.7332,-7.7398,-7.7422,-7.713,-7.7131,-7.7131,0,-7.6353,-7.6474,-7.6463,-7.6555,-7.6596,-7.6551,-7.6654,-7.6688,-7.6759,-7.6787,-7.6744,-7.6895,-7.6923,-7.7061,-7.7106,-7.7135,-7.7162,-7.711,-7.7311,-7.733,-7.7347,-7.741,-7.7435,-7.7137,-7.7136,-7.7136,-7.7135,0,-7.6572,-7.6656,-7.6733,-7.6805,-7.6854,-7.6951,-7.6954,-7.7005,-7.6989,-7.6999,-7.7113,-7.7145,-7.7217,-7.7248,-7.7233,-7.7384,-7.7358,-7.7313,-7.7234,-7.738,-7.7439,-7.7463,-7.7147,-7.7144,-7.7142,-7.7141,0,0,-7.6799,-7.6865,-7.6893,-7.6925,-7.698,-7.7044,-7.7138,-7.721,-7.7254,-7.7304,-7.7381,-7.7485,-7.7444,-7.7482,-7.747,-7.7536,-7.7681,-7.7482,-7.7483,-7.7518,-7.7849,-7.7883,-7.7911,-7.7658,-7.7663,-7.7667,-7.7845,0,-7.6974,-7.7141,-7.7135,-7.729,-7.7367,-7.7326,-7.7407,-7.7449,-7.746,-7.7525,-7.7536,-7.761,-7.755,-7.7573,-7.7637,-7.765,-7.7747,-7.7637,-7.7729,-7.7732,-7.7719,-7.7942,-7.7978,-7.8144,-7.7868,-7.7872,-7.7874,0,-7.7201,-7.7261,-7.7425,-7.7469,-7.7501,-7.7575,-7.764,-7.7704,-7.7749,-7.7753,-7.7797,-7.7774,-7.7867,-7.7787,-7.7914,-7.784,-7.7876,-7.7889,-7.7895,-7.7903,-7.7812,-7.7955,-7.8197,-7.8222,-7.7911,-7.7908,-7.7905,0,-7.735,-7.7472,-7.7585,-7.7614,-7.7668,-7.7721,-7.7745,-7.7786,-7.783,-7.7887,-7.7915,-7.7981,-7.8017,-7.8067,-7.8062,-7.8004,-7.8192,-7.8111,-7.8196,-7.8196,-7.8237,-7.8235,-7.8489,-7.8262,-7.8261,-7.8261,-7.826,0,-7.7546,-7.7648,-7.7653,-7.7723,-7.7836,-7.7826,-7.7937,-7.7955,-7.7992,-7.8064,-7.8031,-7.8098,-7.8088,-7.8155,-7.8151,-7.8257,-7.8273,-7.8278,-7.8275,-7.8281,-7.828,-7.8304,-7.8293,-7.8268,-7.8266,-7.8265,-7.8264,0,-7.7732,-7.774,-7.7861,-7.7903,-7.7916,-7.7997,-7.8031,-7.8096,-7.8105,-7.8196,-7.8216,-7.8229,-7.8306,-7.8307,-7.8394,-7.8392,-7.8521,-7.8506,-7.8507,-7.8504,-7.8589,-7.8581,-7.8867,-7.8904,-7.8654,-7.8656,-7.8658,0,-7.7857,-7.7934,-7.7985,-7.8032,-7.806,-7.8136,-7.8181,-7.8174,-7.8222,-7.828,-7.8338,-7.8413,-7.8472,-7.8596,-7.8612,-7.8679,-7.8664,-7.876,-7.8674,-7.8677,-7.8665,-7.8661,-7.8668,-7.8777,-7.878,-7.8782,-7.8784,0,-7.8077,-7.8078,-7.8145,-7.8215,-7.8271,-7.8324,-7.8374,-7.8413,-7.8412,-7.8467,-7.8547,-7.8593,-7.8683,-7.8757,-7.8822,-7.8844,-7.8814,-7.8811,-7.8834,-7.884,-7.8838,-7.884,-7.8553,-7.8804,-7.8802,-7.8801,-7.8799,-7.8799,-7.8236,-7.8303,-7.835,-7.8427,-7.8464,-7.8511,-7.8575,-7.8592,-7.866,-7.8734,-7.8725,-7.8814,-7.8856,-7.894,-7.8968,-7.9036,-7.9002,-7.9036,-7.9045,-7.9053,-7.9062,-7.8827,-7.9048,-7.9047,-7.9046,-7.9046,-7.9046,0,-7.8455,-7.8483,-7.8554,-7.8626,-7.8686,-7.8654,-7.8707,-7.8759,-7.8838,-7.8882,-7.8941,-7.9032,-7.9104,-7.9126,-7.9195,-7.9245,-7.9232,-7.9263,-7.9259,-7.9265,-7.9089,-7.9062,-7.9272,-7.9272,-7.9272,-7.9272,-7.9272,-7.9272,-7.8576,-7.8688,-7.8694,-7.8824,-7.885,-7.8939,-7.8972,-7.9015,-7.905,-7.9154,-7.9215,-7.9229,-7.9264,-7.9335,-7.9398,-7.9403,-7.9429,-7.9466,-7.9464,-7.93,-7.9277,-7.9255,-7.923,-7.9472,-7.9472,-7.9634,-7.9636,-7.9637]}]]